Weather in Narva-Joesuu

Estonia     59°27′24″N   28°02′26″E
temp.,
°C
wind,
m/s
gust,
m/s
humid.,
%
clouds,
%
prec.,
mm/h
press.,
hPa
HPBL,
m
16 june, wed
wed1600:00+13w712740 0.0 1013410
03:00+13w711800 0.0 1014356
06:00+13wnw568268 0.0 1015237
09:00+13wnw567716 0.0 1017318
12:00+14wnw35685 0.0 1018320
15:00+15nnw3461100 0.0 1018268
18:00+15w3457100 0.0 1018171
21:00+15wnw597231 0.0 1019221
17 june, thu
thu1700:00+14w49765 0.0 1020188
03:00+13wsw477458 0.0 1021159
06:00+13wsw35735 0.0 1022167
09:00+15w23672 0.0 1024266
12:00+15nnw22655 0.0 1024356
15:00+17nnw226063 0.0 1024333
18:00+18w13575 0.0 1023346
21:00+19s33646 0.0 102331
18 june, fri
fri1800:00+16ssw34745 0.0 102346
03:00+15s357914 0.0 102360
06:00+15ssw47847 0.0 1023129
09:00+19ssw58685 0.0 1022222
12:00+21ssw58580 0.0 1022374
15:00+23ssw47530 0.0 1021498
18:00+23ssw69530 0.0 1020464
21:00+20wsw35680 0.0 102054
19 june, sat
sat1900:00+18ssw44760 0.0 102022
03:00+17ssw46823 0.0 102066
06:00+17ssw510860 0.0 1020157
09:00+21ssw58724 0.0 1020186
12:00+23ssw68621 0.0 1020411
15:00+23ssw696097 0.0 1019527
18:00+24ssw585615 0.0 1018570
21:00+22s586247 0.0 1017115
20 june, sun
sun2000:00+19s58740 0.0 101898
03:00+18s59840 0.0 1018109
06:00+18s610874 0.0 1017161
09:00+21s7117081 0.0 1017238
12:00+23ssw71163100 0.0 1016375
15:00+25s71058100 0.0 1015561
18:00+17nnw579475 0.4 1016113
21:00+17e229975 2.7 101639